BMCB-7 Weather Reports


time (UTC)temp
F
wind
direction
speed
knots
gust
knots
rain 1hr
in
rain 24hr
in
rain mn
in
humidity
%
barometer
mb
20260507151047 55 5 3.5 5.2 0.00 0.00 0.00 70 1015.1
20260507150049 55 349 3.5 5.2 0.00 0.00 0.00 72 1015.0
20260507145050 55 2 3.5 6.1 0.00 0.00 0.00 72 1015.0
20260507144049 55 8 3.5 6.1 0.00 0.00 0.00 72 1015.1
20260507143049 55 357 3.5 5.2 0.00 0.00 0.00 73 1015.1
20260507142049 55 357 3.5 6.1 0.00 0.00 0.00 72 1015.1
20260507141049 55 344 3.5 5.2 0.00 0.00 0.00 71 1015.1
20260507140055 55 344 3.5 5.2 0.00 0.00 0.00 72 1015.2
20260507135049 55 337 2.6 4.3 0.00 0.00 0.00 74 1015.2
20260507133050 55 44 2.6 3.5 0.00 0.00 0.00 70 1015.2
20260507132050 55 77 3.5 6.1 0.00 0.00 0.00 67 1015.2
20260507131048 55 68 2.6 5.2 0.00 0.00 0.00 69 1015.1
20260507123052 55 69 2.6 5.2 0.00 0.00 0.00 72 1015.2
20260507122047 55 32 2.6 4.3 0.00 0.00 0.00 72 1015.2
20260507121051 54 67 3.5 5.2 0.00 0.00 0.00 73 1015.2
20260507120050 54 33 3.5 5.2 0.00 0.00 0.00 75 1015.2
20260507115049 53 58 1.7 5.2 0.00 0.00 0.00 76 1015.3
20260507114049 53 16 1.7 4.3 0.00 0.00 0.00 76 1015.2
20260507113047 53 331 2.6 4.3 0.00 0.00 0.00 76 1015.3
20260507112051 53 355 2.6 6.1 0.00 0.00 0.00 76 1015.2
20260507110051 53 274 2.6 5.2 0.00 0.00 0.00 78 1015.2
20260507105050 53 195 1.7 3.5 0.00 0.00 0.00 78 1015.3
20260507104048 53 340 1.7 5.2 0.00 0.00 0.00 77 1015.3
20260507103049 53 294 1.7 5.2 0.00 0.00 0.00 77 1015.3
20260507102048 53 4 2.6 4.3 0.00 0.00 0.00 77 1015.3
20260507100050 52 50 1.7 4.3 0.00 0.00 0.00 79 1015.3
20260507094046 51 358 2.6 5.2 0.00 0.01 0.00 82 1015.3
20260507093047 51 11 3.5 6.1 0.00 0.01 0.00 81 1015.2
20260507092048 50 9 2.6 5.2 0.00 0.01 0.00 83 1015.2
20260507090049 50 231 2.6 4.3 0.00 0.02 0.00 84 1015.1
20260507085047 50 29 2.6 6.1 0.00 0.02 0.00 83 1015.2
20260507083049 50 38 2.6 4.3 0.00 0.03 0.00 85 1015.0
20260507081049 49 46 2.6 5.2 0.00 0.04 0.00 85 1014.9
20260507080044 49 38 2.6 5.2 0.00 0.04 0.00 86 1014.9
20260507075047 48 46 2.6 5.2 0.00 0.04 0.00 87 1014.9
20260507074049 48 31 2.6 4.3 0.00 0.05 0.00 87 1014.9
20260507073049 48 58 2.6 4.3 0.00 0.05 0.00 87 1014.8
20260507072031 48 30 1.7 5.2 0.00 0.06 0.00 87 1014.7
20260507071048 48 2 1.7 3.5 0.00 0.07 0.00 88 1014.7
20260507070047 47 3 0.9 3.5 0.00 0.09 0.00 88 1014.7
20260507065025 47 353 1.7 4.3 0.00 0.09 0.00 88 1014.7
20260507064047 47 26 1.7 3.5 0.00 0.10 0.00 88 1014.7
20260507062047 46 25 2.6 3.5 0.00 0.13 0.00 91 1014.5
20260507061047 46 358 1.7 3.5 0.00 0.13 0.00 93 1014.5
20260507060046 45 13 1.7 2.6 0.00 0.14 0.00 94 1014.5
20260507055040 45 2 1.7 2.6 0.00 0.15 0.00 94 1014.3
20260507054028 45 353 2.6 3.5 0.00 0.17 0.00 94 1014.2
20260507053045 45 347 2.6 3.5 0.00 0.17 0.00 94 1014.1
20260507052046 45 346 0.9 2.6 0.00 0.18 0.00 95 1014.1
20260507051047 45 346 0.9 1.7 0.00 0.19 0.00 96 1013.9
20260507050045 44 346 1.7 2.6 0.00 0.20 0.00 96 1013.8
20260507045048 44 346 1.7 2.6 0.00 0.20 0.00 96 1013.7
20260507044047 44 351 2.6 3.5 0.00 0.21 0.00 96 1013.6
20260507043047 44 3 1.7 2.6 0.00 0.22 0.00 96 1013.5
20260507042048 44 8 1.7 2.6 0.00 0.23 0.00 95 1013.5
20260507040047 44 5 2.6 3.5 0.00 0.25 0.00 94 1013.3
20260507035047 44 18 2.6 4.3 0.00 0.26 0.00 93 1013.3
20260507034047 44 32 2.6 4.3 0.00 0.27 0.00 94 1013.2
20260507033024 44 26 2.6 4.3 0.00 0.27 0.00 94 1013.2
20260507032049 44 29 3.5 4.3 0.00 0.28 0.00 94 1013.1
20260507031046 44 15 2.6 4.3 0.00 0.28 0.00 95 1013.0
20260507030046 44 9 2.6 4.3 0.00 0.29 0.00 95 1013.0
20260507024044 44 14 3.5 6.1 0.00 0.30 0.00 97 1013.0
20260507023041 44 3 2.6 5.2 0.00 0.31 0.00 97 1012.9
20260507022022 44 351 3.5 5.2 0.00 0.31 0.00 97 1012.8
20260507021048 44 351 3.5 4.3 0.00 0.31 0.00 97 1012.7
20260507020047 44 350 2.6 4.3 0.00 0.31 0.00 97 1012.6
20260507015040 44 358 1.7 3.5 0.00 0.32 0.00 97 1012.6
20260507013043 44 348 2.6 4.3 0.00 0.34 0.00 97 1012.6
20260507012043 44 350 2.6 4.3 0.00 0.35 0.00 97 1012.5
20260507010049 44 358 2.6 3.5 0.00 0.36 0.00 96 1012.5
20260507003045 44 337 2.6 4.3 0.00 0.39 0.00 96 1012.5
20260507002046 44 333 2.6 4.3 0.00 0.40 0.00 96 1012.5
20260507001046 44 337 2.6 4.3 0.00 0.40 0.00 95 1012.4
20260507000044 44 333 2.6 3.5 0.00 0.41 0.00 95 1012.4
20260506235052 44 336 2.6 3.5 0.00 0.42 0.00 95 1012.4
20260506234051 44 343 1.7 3.5 0.00 0.43 0.00 95 1012.3
20260506233050 44 335 2.6 3.5 0.00 0.44 0.00 95 1012.3
20260506232052 44 335 1.7 2.6 0.00 0.46 0.00 95 1012.2
20260506231049 44 339 1.7 2.6 0.00 0.46 0.00 95 1012.2
20260506230051 44 343 2.6 2.6 0.00 0.47 0.00 96 1012.1
20260506225050 44 347 1.7 2.6 0.00 0.48 0.00 96 1012.1
20260506223049 44 340 1.7 3.5 0.00 0.50 0.00 95 1012.0
20260506221051 44 7 2.6 5.2 0.00 0.52 0.00 95 1011.7
20260506220059 43 7 2.6 5.2 0.00 0.52 0.00 94 1011.6
20260506215055 44 11 3.5 6.1 0.00 0.53 0.52 93 1011.6
20260506214055 44 5 4.3 7.0 0.00 0.54 0.52 93 1011.4
20260506213052 44 5 3.5 5.2 0.00 0.54 0.52 92 1011.3
20260506212053 44 5 3.5 5.2 0.00 0.54 0.52 93 1011.2
20260506211053 45 3 2.6 4.3 0.00 0.55 0.52 93 1011.1
20260506210053 45 3 2.6 4.3 0.00 0.56 0.52 93 1011.1
20260506205052 45 8 4.3 6.1 0.00 0.57 0.52 93 1010.9
20260506204053 46 8 4.3 6.1 0.00 0.57 0.52 92 1010.7
20260506203054 47 7 3.5 6.1 0.00 0.58 0.52 91 1010.5
20260506202054 47 355 2.6 4.3 0.00 0.59 0.52 91 1010.5
20260506201059 47 355 2.6 4.3 0.00 0.61 0.52 93 1010.4
20260506195052 48 333 1.7 1.7 0.00 0.64 0.52 94 1010.1
20260506194052 48 9 0.9 2.6 0.00 0.65 0.52 95 1010.1
20260506193052 49 18 1.7 2.6 0.00 0.67 0.52 94 1009.9
20260506192052 49 60 0.9 1.7 0.00 0.68 0.52 93 1009.9
20260506191052 49 52 0.9 1.7 0.00 0.69 0.52 92 1009.9
20260506190054 49 52 0.9 1.7 0.00 0.70 0.52 92 1009.8
20260506185051 49 65 0.9 2.6 0.00 0.71 0.52 91 1009.7
20260506184051 49 81 0.9 2.6 0.00 0.72 0.52 91 1009.7
20260506182054 49 335 1.7 4.3 0.00 0.75 0.52 91 1009.4
20260506181050 49 274 2.6 3.5 0.00 0.75 0.52 92 1009.3
20260506180053 50 269 2.6 3.5 0.00 0.76 0.52 93 1009.2
20260506175053 50 269 2.6 3.5 0.00 0.76 0.52 92 1009.0
20260506174050 50 270 2.6 4.3 0.00 0.77 0.52 92 1008.9
20260506172052 50 269 2.6 4.3 0.00 0.79 0.52 92 1008.7
20260506171050 50 280 2.6 4.3 0.00 0.79 0.52 92 1008.6
20260506170047 50 289 2.6 4.3 0.00 0.80 0.52 92 1008.7
20260506165047 50 302 3.5 5.2 0.00 0.80 0.52 91 1008.6
20260506164049 50 300 3.5 5.2 0.00 0.80 0.52 90 1008.6
20260506163049 50 302 4.3 6.1 0.00 0.81 0.52 90 1008.6
20260506162052 51 313 4.3 7.0 0.00 0.81 0.52 89 1008.6
20260506161050 51 305 4.3 7.0 0.00 0.81 0.52 88 1008.6
20260506160048 51 313 3.5 6.1 0.00 0.82 0.52 88 1008.6
20260506155050 51 324 3.5 6.1 0.00 0.83 0.52 88 1008.6
20260506154053 51 340 2.6 4.3 0.00 0.83 0.52 88 1008.5
20260506153049 51 351 2.6 4.3 0.00 0.84 0.52 88 1008.5